TimeCST,TemperatureF,Dew PointF,Humidity,Sea Level PressureIn,VisibilityMPH,Wind Direction,Wind SpeedMPH,Gust SpeedMPH,PrecipitationIn,Events,Conditions,WindDirDegrees,DateUTC
12:13 AM,19.4,17.6,93,30.22,7.0,SE,13.8,-,N/A,,Overcast,140,2013-03-07 06:13:00
12:33 AM,19.4,17.6,93,30.22,7.0,SE,12.7,-,N/A,,Overcast,140,2013-03-07 06:33:00
12:53 AM,19.4,17.6,93,30.22,10.0,SE,13.8,-,N/A,,Overcast,140,2013-03-07 06:53:00
1:13 AM,19.4,17.6,93,30.23,10.0,SSE,10.4,-,N/A,,Overcast,150,2013-03-07 07:13:00
1:33 AM,19.4,17.6,93,30.23,10.0,SE,8.1,-,N/A,,Overcast,140,2013-03-07 07:33:00
1:53 AM,19.4,17.6,93,30.23,10.0,SE,9.2,-,N/A,,Overcast,140,2013-03-07 07:53:00
2:13 AM,17.6,17.6,100,30.22,10.0,SSE,11.5,-,N/A,,Mostly Cloudy,150,2013-03-07 08:13:00
2:33 AM,17.6,17.6,100,30.22,10.0,SSE,11.5,17.3,N/A,,Overcast,150,2013-03-07 08:33:00
2:53 AM,17.6,17.6,100,30.22,5.0,SSE,10.4,-,N/A,,Overcast,160,2013-03-07 08:53:00
3:13 AM,19.4,17.6,93,30.22,4.0,SSE,12.7,-,N/A,,Overcast,150,2013-03-07 09:13:00
3:33 AM,17.6,17.6,100,30.20,7.0,SE,12.7,-,N/A,,Overcast,140,2013-03-07 09:33:00
3:53 AM,17.6,17.6,100,30.20,4.0,SSE,11.5,-,N/A,,Overcast,150,2013-03-07 09:53:00
4:13 AM,17.6,17.6,100,30.20,4.0,SE,10.4,-,N/A,,Overcast,140,2013-03-07 10:13:00
4:33 AM,17.6,17.6,100,30.21,4.0,SSE,10.4,-,N/A,,Overcast,150,2013-03-07 10:33:00
4:53 AM,17.6,17.6,100,30.20,4.0,SSE,11.5,16.1,N/A,,Overcast,150,2013-03-07 10:53:00
5:13 AM,17.6,17.6,100,30.21,4.0,SSE,10.4,-,N/A,,Overcast,150,2013-03-07 11:13:00
5:33 AM,17.6,17.6,100,30.21,5.0,SSE,12.7,-,N/A,,Overcast,150,2013-03-07 11:33:00
5:53 AM,17.6,17.6,100,30.20,4.0,SE,13.8,18.4,N/A,,Overcast,140,2013-03-07 11:53:00
6:13 AM,17.6,17.6,100,30.20,4.0,SSE,12.7,-,N/A,,Overcast,150,2013-03-07 12:13:00
6:33 AM,17.6,17.6,100,30.19,5.0,SSE,11.5,-,N/A,,Overcast,150,2013-03-07 12:33:00
6:53 AM,17.6,17.6,100,30.19,3.0,SSE,13.8,17.3,N/A,,Overcast,150,2013-03-07 12:53:00
7:13 AM,17.6,17.6,100,30.19,3.0,SSE,11.5,18.4,N/A,,Overcast,150,2013-03-07 13:13:00
7:33 AM,17.6,15.8,93,30.19,2.0,SSE,11.5,18.4,N/A,,Overcast,160,2013-03-07 13:33:00
7:53 AM,17.6,15.8,93,30.20,1.5,SSE,11.5,-,N/A,,Overcast,160,2013-03-07 13:53:00
8:13 AM,19.4,17.6,93,30.20,1.5,SSE,10.4,-,N/A,Snow,Light Snow,150,2013-03-07 14:13:00
8:33 AM,19.4,17.6,93,30.19,2.5,SSE,15.0,-,N/A,,Overcast,150,2013-03-07 14:33:00
9:13 AM,19.4,17.6,93,30.19,5.0,SSE,11.5,-,N/A,,Overcast,160,2013-03-07 15:13:00
9:33 AM,21.2,19.4,93,30.18,7.0,SSE,11.5,-,N/A,,Overcast,160,2013-03-07 15:33:00
9:53 AM,21.2,21.2,100,30.17,10.0,SSE,11.5,19.6,N/A,,Scattered Clouds,160,2013-03-07 15:53:00
10:13 AM,23.0,21.2,93,30.18,10.0,South,17.3,20.7,N/A,,Clear,170,2013-03-07 16:13:00
10:34 AM,24.8,21.2,86,30.17,10.0,SSE,13.8,19.6,N/A,,Scattered Clouds,160,2013-03-07 16:34:00
10:53 AM,24.8,21.2,86,30.17,10.0,SSE,16.1,19.6,N/A,,Clear,160,2013-03-07 16:53:00
11:13 AM,26.6,21.2,80,30.17,10.0,SSE,17.3,24.2,N/A,,Clear,160,2013-03-07 17:13:00
11:34 AM,26.6,23.0,86,30.17,10.0,SSE,16.1,-,N/A,,Clear,150,2013-03-07 17:34:00
11:53 AM,28.4,23.0,80,30.16,10.0,SSE,17.3,23.0,N/A,,Clear,160,2013-03-07 17:53:00
12:13 PM,28.4,24.8,86,30.14,10.0,SSE,18.4,-,N/A,,Clear,160,2013-03-07 18:13:00
12:34 PM,28.4,24.8,86,30.14,10.0,SSE,17.3,21.9,N/A,,Clear,160,2013-03-07 18:34:00
12:53 PM,30.2,24.8,80,30.13,10.0,SSE,19.6,23.0,N/A,,Clear,150,2013-03-07 18:53:00
1:13 PM,30.2,24.8,80,30.12,10.0,SSE,16.1,20.7,N/A,,Scattered Clouds,150,2013-03-07 19:13:00
1:34 PM,32.0,26.6,80,30.10,10.0,SE,17.3,23.0,N/A,Snow,Light Snow,140,2013-03-07 19:34:00
1:53 PM,32.0,26.6,80,30.09,10.0,SE,16.1,-,N/A,,Clear,140,2013-03-07 19:53:00
2:13 PM,33.8,26.6,75,30.09,10.0,SSE,17.3,24.2,N/A,,Clear,150,2013-03-07 20:13:00
2:33 PM,33.8,26.6,75,30.09,10.0,SSE,19.6,23.0,N/A,,Clear,150,2013-03-07 20:33:00
2:53 PM,33.8,28.4,81,30.10,10.0,SSE,15.0,20.7,N/A,,Clear,160,2013-03-07 20:53:00
3:13 PM,33.8,28.4,81,30.11,10.0,SSE,16.1,19.6,N/A,,Clear,150,2013-03-07 21:13:00
3:33 PM,33.8,26.6,75,30.10,10.0,SSE,16.1,20.7,N/A,,Clear,150,2013-03-07 21:33:00
3:54 PM,33.8,28.4,81,30.08,10.0,SSE,18.4,-,N/A,,Clear,150,2013-03-07 21:54:00
4:13 PM,33.8,28.4,81,30.08,10.0,SSE,18.4,23.0,N/A,,Clear,150,2013-03-07 22:13:00
4:33 PM,33.8,28.4,81,30.08,10.0,SSE,16.1,-,N/A,,Clear,150,2013-03-07 22:33:00
4:53 PM,33.8,28.4,81,30.08,10.0,SSE,17.3,-,N/A,,Clear,150,2013-03-07 22:53:00
5:13 PM,32.0,28.4,87,30.08,10.0,SSE,16.1,21.9,N/A,,Clear,150,2013-03-07 23:13:00
5:33 PM,32.0,28.4,87,30.09,10.0,SSE,13.8,-,N/A,,Clear,150,2013-03-07 23:33:00
5:53 PM,32.0,28.4,87,30.10,10.0,South,13.8,-,N/A,,Clear,170,2013-03-07 23:53:00
7:33 PM,30.2,26.6,86,30.13,7.0,SSE,10.4,-,N/A,,Clear,150,2013-03-08 01:33:00
7:53 PM,28.4,26.6,93,30.13,7.0,SSE,11.5,-,N/A,,Clear,150,2013-03-08 01:53:00
8:13 PM,28.4,26.6,93,30.12,7.0,SSE,13.8,-,N/A,,Clear,150,2013-03-08 02:13:00
8:33 PM,28.4,26.6,93,30.13,7.0,SSE,11.5,-,N/A,,Clear,150,2013-03-08 02:33:00
8:53 PM,28.4,26.6,93,30.13,7.0,SSE,13.8,18.4,N/A,,Clear,150,2013-03-08 02:53:00
9:13 PM,28.4,26.6,93,30.13,7.0,SSE,12.7,-,N/A,,Clear,160,2013-03-08 03:13:00
9:33 PM,28.4,26.6,93,30.13,7.0,SSE,13.8,-,N/A,,Clear,160,2013-03-08 03:33:00
9:53 PM,28.4,26.6,93,30.14,5.0,SSE,9.2,-,N/A,,Clear,160,2013-03-08 03:53:00
10:13 PM,28.4,26.6,93,30.14,5.0,SSE,12.7,-,N/A,,Clear,160,2013-03-08 04:13:00
10:33 PM,28.4,26.6,93,30.14,5.0,SSE,12.7,-,N/A,,Clear,160,2013-03-08 04:33:00
10:53 PM,28.4,26.6,93,30.15,5.0,SSE,11.5,-,N/A,,Clear,150,2013-03-08 04:53:00
11:13 PM,28.4,26.6,93,30.15,5.0,SSE,10.4,-,N/A,,Clear,150,2013-03-08 05:13:00
11:33 PM,28.4,26.6,93,30.16,5.0,SSE,9.2,-,N/A,,Clear,160,2013-03-08 05:33:00